EW6452 Weather Reports


Display with metric or nautical units.
time (UTC)temp
F
wind
direction
speed
MPH
gust
MPH
rain 1hr
in
rain 24hr
in
rain mn
in
humidity
%
barometer
mb
20260506164555 62 360 0.0 4.0 0.01 0.06 0.06 90 1012.8
20260506164052 62 360 2.0 9.0 0.02 0.06 0.06 90 1013.3
20260506163552 61 360 2.0 9.0 0.06 0.06 0.06 90 1013.5
20260506163059 62 360 2.0 9.0 0.06 0.06 0.06 91 1013.2
20260506162552 62 360 2.0 14.0 0.06 0.06 0.06 93 1013.1
20260506162052 60 360 1.0 14.0 0.06 0.06 0.06 92 1013.0
20260506161555 60 360 5.0 14.0 0.06 0.06 0.06 91 1013.3
20260506161052 60 360 4.0 10.0 0.06 0.06 0.06 91 1014.1
20260506160552 60 360 3.0 12.0 0.06 0.06 0.06 91 1014.5
20260506160055 61 360 3.0 12.0 0.06 0.06 0.06 91 1014.5
20260506155556 61 360 3.0 12.0 0.06 0.06 0.06 90 1014.1
20260506155055 61 360 2.0 10.0 0.05 0.05 0.05 90 1014.3
20260506154610 62 360 3.0 10.0 0.05 0.05 0.05 89 1014.2
20260506154052 62 360 3.0 9.0 0.04 0.04 0.04 88 1014.2
20260506153552 63 360 3.0 10.0 0.00 0.00 0.00 88 1014.3
20260506153056 64 360 3.0 10.0 0.00 0.00 0.00 88 1014.0
20260506152552 64 360 2.0 8.0 0.00 0.00 0.00 88 1013.8
20260506152052 64 360 3.0 11.0 0.00 0.00 0.00 87 1013.5
20260506151554 64 360 3.0 11.0 0.00 0.00 0.00 88 1012.9
20260506151052 64 360 3.0 11.0 0.00 0.00 0.00 87 1012.7
20260506150553 65 360 3.0 11.0 0.00 0.00 0.00 87 1012.7
20260506150055 65 360 4.0 10.0 0.00 0.00 0.00 86 1012.8
20260506145553 66 360 3.0 10.0 0.00 0.00 0.00 86 1012.4
20260506145052 67 360 3.0 13.0 0.00 0.00 0.00 86 1012.2
20260506144559 68 22 3.0 13.0 0.00 0.00 0.00 84 1011.7
20260506144054 69 56 3.0 13.0 0.00 0.00 0.00 82 1011.6
20260506143555 72 5 3.0 13.0 0.00 0.00 0.00 80 1011.6
20260506143055 76 62 2.0 8.0 0.00 0.00 0.00 79 1011.4
20260506142553 78 103 0.0 4.0 0.00 0.00 0.00 85 1010.8
20260506142052 78 0 0.0 4.0 0.00 0.00 0.00 84 1010.9
20260506141555 78 198 0.0 4.0 0.00 0.00 0.00 86 1010.7
20260506141055 77 116 1.0 4.0 0.00 0.00 0.00 87 1010.7
20260506140555 77 198 1.0 4.0 0.00 0.00 0.00 88 1010.6
20260506140051 76 168 0.0 4.0 0.00 0.00 0.00 87 1010.9
20260506135552 76 168 1.0 4.0 0.00 0.00 0.00 88 1010.9
20260506135052 76 168 1.0 4.0 0.00 0.00 0.00 89 1010.6
20260506134556 76 168 1.0 6.0 0.00 0.00 0.00 90 1010.3
20260506134055 75 196 2.0 7.0 0.00 0.00 0.00 91 1010.3
20260506133553 75 191 2.0 7.0 0.00 0.00 0.00 91 1010.4
20260506133116 75 200 1.0 6.0 0.00 0.00 0.00 91 1010.2
20260506132552 75 192 3.0 6.0 0.00 0.00 0.00 92 1010.2
20260506132053 74 191 1.0 6.0 0.00 0.00 0.00 92 1010.0
20260506131555 74 156 1.0 6.0 0.00 0.00 0.00 92 1010.0
20260506131052 74 201 1.0 3.0 0.00 0.00 0.00 93 1010.0
20260506130552 73 201 1.0 5.0 0.00 0.00 0.00 93 1010.0
20260506130120 73 201 1.0 5.0 0.00 0.00 0.00 93 1010.0
20260506125552 73 193 2.0 4.0 0.00 0.00 0.00 93 1010.0
20260506125052 73 198 1.0 3.0 0.00 0.00 0.00 93 1009.9
20260506124554 73 194 0.0 3.0 0.00 0.00 0.00 93 1009.8
20260506124052 73 194 1.0 3.0 0.00 0.00 0.00 93 1009.8
20260506123552 73 194 0.0 2.0 0.00 0.00 0.00 93 1009.7
20260506123054 73 0 0.0 2.0 0.00 0.00 0.00 93 1009.6
20260506122553 73 0 0.0 2.0 0.00 0.00 0.00 93 1009.7
20260506122051 73 194 0.0 4.0 0.00 0.00 0.00 93 1009.7
20260506121552 73 194 0.0 4.0 0.00 0.00 0.00 93 1009.6
20260506121053 73 0 0.0 3.0 0.00 0.00 0.00 93 1009.6
20260506120552 73 194 1.0 3.0 0.00 0.00 0.00 93 1009.7
20260506120058 73 194 1.0 3.0 0.00 0.00 0.00 93 1009.6
20260506115557 73 194 0.0 2.0 0.00 0.00 0.00 92 1009.6
20260506115053 73 194 0.0 2.0 0.00 0.00 0.00 92 1009.5
20260506114604 73 194 0.0 2.0 0.00 0.00 0.00 92 1009.5
20260506114052 73 0 0.0 2.0 0.00 0.00 0.00 92 1009.6
20260506113552 73 195 0.0 2.0 0.00 0.00 0.00 92 1009.6
20260506113055 73 0 0.0 2.0 0.00 0.00 0.00 92 1009.7
20260506112553 73 0 0.0 2.0 0.00 0.00 0.00 92 1009.7
20260506112055 73 195 0.0 2.0 0.00 0.00 0.00 92 1009.7
20260506111553 73 0 0.0 2.0 0.00 0.00 0.00 92 1009.7
20260506111052 73 0 0.0 2.0 0.00 0.00 0.00 92 1009.7
20260506110552 73 195 0.0 2.0 0.00 0.00 0.00 91 1009.6
20260506110054 74 0 0.0 3.0 0.00 0.00 0.00 91 1009.5
20260506105553 74 0 0.0 3.0 0.00 0.00 0.00 91 1009.7
20260506105053 74 195 1.0 3.0 0.00 0.00 0.00 91 1009.6
20260506104613 74 0 1.0 3.0 0.00 0.00 0.00 91 1009.5
20260506104052 74 194 1.0 5.0 0.00 0.00 0.00 91 1009.4
20260506103553 74 194 2.0 5.0 0.00 0.00 0.00 91 1009.3
20260506103055 74 157 1.0 5.0 0.00 0.00 0.00 90 1009.3
20260506102553 74 212 2.0 5.0 0.00 0.00 0.00 90 1009.3
20260506102053 74 200 2.0 4.0 0.00 0.00 0.00 90 1009.3
20260506101557 74 200 1.0 4.0 0.00 0.00 0.00 90 1009.2
20260506101052 74 200 1.0 3.0 0.00 0.00 0.00 90 1009.2
20260506100552 75 200 1.0 3.0 0.00 0.00 0.00 90 1009.2
20260506100054 75 200 1.0 5.0 0.00 0.00 0.00 89 1009.2
20260506095554 75 200 1.0 6.0 0.00 0.00 0.00 89 1009.2
20260506095053 75 200 2.0 6.0 0.00 0.00 0.00 89 1009.1
20260506094553 75 179 2.0 6.0 0.00 0.00 0.00 89 1008.9
20260506094052 75 209 2.0 6.0 0.00 0.00 0.00 89 1008.9
20260506093552 75 164 3.0 6.0 0.00 0.00 0.00 89 1008.9
20260506093052 75 190 3.0 6.0 0.00 0.00 0.00 89 1008.7
20260506092553 75 205 2.0 6.0 0.00 0.00 0.00 89 1008.7
20260506092052 75 172 2.0 6.0 0.00 0.00 0.00 89 1008.8
20260506091556 75 173 2.0 7.0 0.00 0.00 0.00 89 1008.6
20260506091054 75 202 3.0 7.0 0.00 0.00 0.00 89 1008.7
20260506090553 75 191 2.0 7.0 0.00 0.00 0.00 89 1008.5
20260506090055 75 176 3.0 6.0 0.00 0.00 0.00 89 1008.5
20260506085552 75 169 2.0 5.0 0.00 0.00 0.00 89 1008.4
20260506085054 75 186 2.0 6.0 0.00 0.00 0.00 89 1008.6
20260506084555 75 186 3.0 6.0 0.00 0.00 0.00 89 1008.7
20260506084052 75 211 3.0 10.0 0.00 0.00 0.00 88 1008.7
20260506083553 75 249 3.0 10.0 0.00 0.00 0.00 88 1008.6
20260506083055 75 179 2.0 10.0 0.00 0.00 0.00 88 1008.5
20260506082552 75 189 3.0 10.0 0.00 0.00 0.00 88 1008.5
20260506082053 75 174 3.0 9.0 0.00 0.00 0.00 88 1008.4
20260506081558 75 209 5.0 9.0 0.00 0.00 0.00 88 1008.3
20260506081053 75 183 4.0 9.0 0.00 0.00 0.00 88 1008.4
20260506080553 75 215 5.0 11.0 0.00 0.00 0.00 88 1008.3
20260506080104 75 157 4.0 11.0 0.00 0.00 0.00 88 1008.3
20260506073056 75 185 5.0 11.0 0.00 0.00 0.00 88 1008.6
20260506072553 75 173 5.0 10.0 0.00 0.00 0.00 88 1008.6
20260506072052 75 171 5.0 10.0 0.00 0.00 0.00 88 1008.7
20260506071617 75 205 5.0 13.0 0.00 0.00 0.00 88 1008.7
20260506071052 75 205 5.0 13.0 0.00 0.00 0.00 88 1008.7
20260506070552 75 161 6.0 12.0 0.00 0.00 0.00 88 1008.7
20260506062053 75 144 4.0 10.0 0.00 0.00 0.00 89 1008.7
20260506061556 75 180 5.0 10.0 0.00 0.00 0.00 89 1008.6
20260506061053 75 204 5.0 10.0 0.00 0.00 0.00 89 1008.5
20260506060555 75 209 4.0 11.0 0.00 0.00 0.00 89 1008.3
20260506051052 75 193 3.0 9.0 0.00 0.00 0.00 89 1008.9
20260506050553 75 210 4.0 11.0 0.00 0.00 0.00 89 1008.8
20260506045052 75 182 4.0 9.0 0.00 0.00 0.00 89 1008.9
20260506044610 75 198 3.0 9.0 0.00 0.00 0.00 89 1008.8
20260506044052 75 188 4.0 9.0 0.00 0.00 0.00 89 1008.8
20260506043552 75 166 3.0 8.0 0.00 0.00 0.00 89 1008.9
20260506043101 75 200 4.0 8.0 0.00 0.00 0.00 89 1008.7
20260506042553 75 197 3.0 9.0 0.00 0.00 0.00 88 1008.6
20260506042052 75 217 5.0 9.0 0.00 0.00 0.00 88 1008.5
20260506041558 75 159 3.0 8.0 0.00 0.00 0.00 88 1008.6
20260506041053 75 216 4.0 9.0 0.00 0.00 0.00 88 1008.7
20260506040553 75 192 3.0 9.0 0.00 0.00 0.00 88 1008.5
20260506040059 75 202 4.0 8.0 0.00 0.00 0.00 88 1008.4
20260506035553 75 173 3.0 10.0 0.00 0.00 0.00 88 1008.4
20260506035053 75 169 3.0 10.0 0.00 0.00 0.00 88 1008.3
20260506034601 75 178 3.0 7.0 0.00 0.00 0.00 87 1008.2
20260506034052 75 189 3.0 11.0 0.00 0.00 0.00 87 1008.0
20260506033552 76 182 4.0 11.0 0.00 0.00 0.00 87 1008.2
20260506033055 76 163 3.0 8.0 0.00 0.00 0.00 87 1008.1
20260506032553 76 168 3.0 8.0 0.00 0.00 0.00 86 1008.2
20260506032053 76 168 3.0 9.0 0.00 0.00 0.00 86 1008.0
20260506031557 76 206 3.0 9.0 0.00 0.00 0.00 86 1007.9
20260506031055 76 178 4.0 9.0 0.00 0.00 0.00 86 1007.7
20260506030553 76 203 4.0 8.0 0.00 0.00 0.00 86 1007.7
20260506030056 76 178 4.0 8.0 0.00 0.00 0.00 85 1007.7
20260506025552 77 176 4.0 8.0 0.00 0.00 0.00 85 1007.8
20260506025052 77 184 3.0 8.0 0.00 0.00 0.00 85 1007.7
20260506024552 77 162 5.0 8.0 0.00 0.00 0.00 85 1007.7
20260506024055 77 209 3.0 8.0 0.00 0.00 0.00 85 1007.5
20260506023552 77 127 2.0 5.0 0.00 0.00 0.00 84 1007.4
20260506023055 77 184 2.0 6.0 0.00 0.00 0.00 84 1007.4
20260506022553 77 184 2.0 6.0 0.00 0.00 0.00 84 1007.3
20260506022053 77 163 2.0 5.0 0.00 0.00 0.00 84 1007.2
20260506021558 77 167 1.0 5.0 0.00 0.00 0.00 83 1007.1
20260506021053 77 183 1.0 6.0 0.00 0.00 0.00 83 1007.1
20260506020555 77 159 1.0 6.0 0.00 0.00 0.00 83 1007.0
20260506020059 77 157 2.0 6.0 0.00 0.00 0.00 83 1006.9
20260506015553 77 185 2.0 5.0 0.00 0.00 0.00 83 1006.8
20260506015055 77 158 1.0 5.0 0.00 0.00 0.00 83 1006.9
20260506014600 77 158 1.0 5.0 0.00 0.00 0.00 83 1006.9
20260506014054 77 158 1.0 4.0 0.00 0.00 0.00 82 1006.8
20260506013552 78 158 1.0 5.0 0.00 0.00 0.00 82 1006.7
20260506013055 78 158 2.0 7.0 0.00 0.00 0.00 81 1006.8
20260506012552 78 175 2.0 7.0 0.00 0.00 0.00 81 1006.8
20260506012058 78 205 1.0 5.0 0.00 0.00 0.00 81 1006.7
20260506011556 78 169 2.0 5.0 0.00 0.00 0.00 81 1006.7
20260506011052 79 175 2.0 4.0 0.00 0.00 0.00 81 1006.6
20260506010554 79 171 1.0 4.0 0.00 0.00 0.00 80 1006.7
20260506010058 79 183 1.0 5.0 0.00 0.00 0.00 80 1006.8
20260506005553 79 183 1.0 5.0 0.00 0.00 0.00 79 1006.7
20260506005053 79 195 1.0 6.0 0.00 0.00 0.00 79 1006.8
20260506004554 80 180 2.0 6.0 0.00 0.00 0.00 78 1006.7
20260506004053 80 178 2.0 5.0 0.00 0.00 0.00 78 1006.7
20260506003557 80 167 2.0 7.0 0.00 0.00 0.00 78 1006.9
20260506003112 80 183 2.0 7.0 0.00 0.00 0.00 77 1006.8
20260506002552 80 195 3.0 6.0 0.00 0.00 0.00 77 1006.8
20260506002053 80 173 3.0 6.0 0.00 0.00 0.00 77 1006.7
20260506001611 80 185 2.0 5.0 0.00 0.00 0.00 78 1006.7
20260506001053 80 205 2.0 5.0 0.00 0.00 0.00 77 1006.8
20260506000553 81 186 2.0 6.0 0.00 0.00 0.00 76 1006.8
20260506000058 81 189 2.0 7.0 0.00 0.00 0.00 76 1006.8
20260505235552 81 192 3.0 8.0 0.00 0.00 0.00 75 1006.8
20260505235052 81 131 2.0 8.0 0.00 0.00 0.00 75 1006.8
20260505234611 81 131 3.0 8.0 0.00 0.00 0.00 75 1006.7
20260505234053 81 175 3.0 9.0 0.00 0.00 0.00 75 1006.7
20260505233553 81 175 4.0 9.0 0.00 0.00 0.00 75 1006.4
20260505233053 81 173 3.0 9.0 0.00 0.00 0.00 74 1006.5
20260505232553 81 177 3.0 9.0 0.00 0.00 0.00 76 1006.4
20260505232056 81 214 4.0 9.0 0.00 0.00 0.00 76 1006.2
20260505231600 81 203 4.0 9.0 0.00 0.00 0.00 76 1006.1
20260505231052 81 166 3.0 11.0 0.00 0.00 0.00 77 1006.0
20260505230553 81 215 4.0 11.0 0.00 0.00 0.00 77 1006.1
20260505230058 81 175 3.0 10.0 0.00 0.00 0.00 76 1006.1
20260505225556 82 176 3.0 10.0 0.00 0.00 0.00 75 1006.2
20260505225053 82 183 5.0 10.0 0.00 0.00 0.00 73 1006.0
20260505224601 82 200 3.0 10.0 0.00 0.00 0.00 74 1006.0
20260505224055 82 207 6.0 10.0 0.00 0.00 0.00 73 1006.0
20260505223554 82 179 4.0 13.0 0.00 0.00 0.00 74 1006.0
20260505223108 82 175 5.0 13.0 0.00 0.00 0.00 73 1006.0
20260505222553 82 152 5.0 11.0 0.00 0.00 0.00 74 1006.0
20260505222053 82 184 4.0 11.0 0.00 0.00 0.00 75 1005.9
20260505221557 82 189 6.0 10.0 0.00 0.00 0.00 74 1006.0
20260505221054 82 128 4.0 10.0 0.00 0.00 0.00 74 1006.1
20260505220553 82 170 4.0 12.0 0.00 0.00 0.00 73 1006.2
20260505220059 82 128 5.0 13.0 0.00 0.00 0.00 73 1006.2
20260505215558 83 179 5.0 13.0 0.00 0.00 0.00 72 1006.1
20260505215053 83 180 5.0 11.0 0.00 0.00 0.00 71 1006.3
20260505214602 83 181 6.0 11.0 0.00 0.00 0.00 70 1006.5
20260505214053 84 205 3.0 14.0 0.00 0.00 0.00 72 1006.6
20260505213553 83 257 5.0 14.0 0.00 0.00 0.00 71 1006.6
20260505213054 83 209 6.0 13.0 0.00 0.00 0.00 71 1006.4
20260505212553 83 173 7.0 12.0 0.00 0.00 0.00 70 1006.5
20260505212053 83 205 5.0 12.0 0.00 0.00 0.00 70 1006.7
20260505211617 83 195 5.0 12.0 0.00 0.00 0.00 73 1007.0
20260505211054 83 173 6.0 14.0 0.00 0.00 0.00 70 1006.8
20260505210552 83 162 8.0 17.0 0.00 0.00 0.00 71 1006.8
20260505210056 82 191 6.0 18.0 0.00 0.00 0.00 72 1006.8
20260505205552 82 189 9.0 18.0 0.00 0.00 0.00 71 1006.8
20260505205052 82 229 7.0 14.0 0.00 0.00 0.00 72 1007.0
20260505204556 82 176 6.0 14.0 0.00 0.00 0.00 73 1007.0
20260505204057 82 165 7.0 13.0 0.00 0.00 0.00 72 1007.1
20260505203554 82 186 5.0 10.0 0.00 0.00 0.00 75 1007.0
20260505203121 82 241 6.0 14.0 0.00 0.00 0.00 74 1007.1
20260505202554 82 138 6.0 14.0 0.00 0.00 0.00 73 1007.3
20260505202054 82 214 5.0 13.0 0.00 0.00 0.00 74 1007.2
20260505201555 81 229 7.0 13.0 0.00 0.00 0.00 74 1007.3
20260505201053 81 205 6.0 13.0 0.00 0.00 0.00 74 1007.5
20260505200553 81 161 5.0 13.0 0.00 0.00 0.00 74 1007.6
20260505200055 81 225 7.0 14.0 0.00 0.00 0.00 73 1007.6
20260505195552 81 180 6.0 14.0 0.00 0.00 0.00 76 1007.6
20260505195052 81 176 7.0 14.0 0.00 0.00 0.00 75 1007.7
20260505194558 81 114 7.0 14.0 0.00 0.00 0.00 74 1007.8
20260505194053 81 177 5.0 10.0 0.00 0.00 0.00 75 1007.8
20260505193553 81 129 3.0 12.0 0.00 0.00 0.00 76 1007.9
20260505193059 80 207 6.0 12.0 0.00 0.00 0.00 76 1008.0
20260505192557 80 175 6.0 13.0 0.00 0.00 0.00 75 1007.8
20260505192054 80 210 6.0 13.0 0.00 0.00 0.00 75 1008.0
20260505191602 80 200 5.0 10.0 0.00 0.00 0.00 74 1008.1
20260505191053 81 192 4.0 11.0 0.00 0.00 0.00 76 1008.0
20260505190553 81 146 4.0 11.0 0.00 0.00 0.00 76 1008.2
20260505190056 80 205 5.0 10.0 0.00 0.00 0.00 75 1008.2
20260505185553 79 162 5.0 9.0 0.00 0.00 0.00 78 1008.2
20260505185053 79 228 3.0 10.0 0.00 0.00 0.00 77 1008.3
20260505184558 78 182 3.0 10.0 0.00 0.00 0.00 78 1008.3
20260505184054 78 182 3.0 10.0 0.00 0.00 0.00 77 1008.5
20260505183553 78 275 3.0 10.0 0.00 0.00 0.00 79 1008.6
20260505183054 78 170 5.0 10.0 0.00 0.00 0.00 78 1008.7
20260505182555 78 180 3.0 9.0 0.00 0.00 0.00 79 1008.9
20260505182054 78 186 5.0 9.0 0.00 0.00 0.00 78 1008.8
20260505181552 78 182 2.0 11.0 0.00 0.00 0.00 79 1008.9
20260505181052 77 165 5.0 12.0 0.00 0.00 0.00 81 1008.9
20260505180553 77 180 5.0 12.0 0.00 0.00 0.00 79 1009.0
20260505180057 77 191 2.0 12.0 0.00 0.00 0.00 80 1009.0
20260505175553 77 208 4.0 10.0 0.00 0.00 0.00 79 1009.0
20260505175055 77 172 4.0 11.0 0.00 0.00 0.00 80 1009.1
20260505174556 77 173 5.0 11.0 0.00 0.00 0.00 80 1009.1
20260505174053 77 184 5.0 11.0 0.00 0.00 0.00 81 1009.1
20260505173552 76 160 5.0 12.0 0.00 0.00 0.00 81 1009.1
20260505173056 76 165 4.0 12.0 0.00 0.00 0.00 83 1009.1
20260505172556 75 168 5.0 9.0 0.00 0.00 0.00 82 1009.2
20260505172052 75 180 4.0 8.0 0.00 0.00 0.00 82 1009.3
20260505171558 75 167 4.0 9.0 0.00 0.00 0.00 83 1009.1
20260505171053 75 177 5.0 11.0 0.00 0.00 0.00 83 1009.2
20260505170553 75 205 4.0 11.0 0.00 0.00 0.00 83 1009.3
20260505170055 74 188 5.0 10.0 0.00 0.00 0.00 83 1009.3
20260505165552 74 172 5.0 12.0 0.00 0.00 0.00 84 1009.3
20260505165052 74 205 5.0 12.0 0.00 0.00 0.00 84 1009.3